Location: Clyde
(45.1830°S, 169.3170°E)
Time: 07:07:31
(UTC+12:00)

SL-8 R/B - Pass Details

Date: 14 May 2021
Orbit: 656 x 667 km, 48.4° (Epoch: 20 June)

Event Time Altitude Azimuth Distance (km) Brightness Sun altitude
Rises 18:28:26 0° 315° (NW) 3,007 8.2 -11.3°
Reaches altitude 10° 18:30:51 10° 320° (NW) 2,099 7.2 -11.7°
Maximum altitude 18:35:30 47° 33° (NNE) 895 4.2 -12.5°
Enters shadow 18:38:40 19° 98° (E) 1,579 5.0 -13.1°
